AirNav   Free SoundLink Mini II speaker
 
 841 users online  

2MU1 Saint Louis Children's Hospital Heliport
Saint Louis, Missouri, USA

GOING TO SAINT LOUIS?


FAA INFORMATION EFFECTIVE 26 MARCH 2020

Location

FAA Identifier: 2MU1
Lat/Long: 38-38-16.7000N 090-15-53.6500W
38-38.278333N 090-15.894167W
38.6379722,-90.2649028
(estimated)
Elevation: 610 ft. / 186 m (estimated)
Variation: 01E (1995)
Time zone: UTC -5 (UTC -6 during Standard Time)
Zip code: 63110

Heliport Operations

Heliport use: Private use, MEDICAL USE.
Activation date: 07/1997
Control tower: no
ARTCC: KANSAS CITY CENTER
FSS: SAINT LOUIS FLIGHT SERVICE STATION
Attendance: ON CALL
Wind indicator: yes
Segmented circle: no
Lights: FOR PERIMETER LGTS CALL 417-434-6000.

Heliport Communications

WX ASOS at CPS (7 nm SE): PHONE 618-332-0001
WX ASOS at STL (8 nm NW): 125.025 (314-890-4790)
WX ASOS at SUS (18 nm W): 134.8 (314-890-7255)
WX AWOS-3 at ALN (18 nm NE): 128.0 (618-259-7231)
WX ASOS at SET (19 nm NW): 118.075 (636-250-4590)

Nearby radio navigation aids

VOR radial/distance  VOR name  Freq  Var
STLr142/16.8ST LOUIS VORTAC117.4001E
TOYr245/17.3TROY VORTAC116.0004E
FTZr091/33.3FORISTELL VORTAC110.8005E

 
NDB name  Hdg/Dist  Freq  Var  ID
ACORE306/12.035000ECP -.-. .--.
EAVES101/13.422701WFZ ..-. --..
CIVIC MEMORIAL214/18.126301WCVM -.-. ...- --

Heliport Services

Runway Information

Helipad H1

Dimensions: 60 x 60 ft. / 18 x 18 m
Surface: concrete
Runway edge lights: PERI
Latitude: 38-38.278333N
Longitude: 090-15.894167W
Elevation: 610.0 ft.
Traffic pattern: leftleft

Heliport Ownership and Management from official FAA records

Ownership: Privately-owned
Owner: SAINT LOUIS CHILDREN'S HOSP.
1 CHILDREN'S PLACE
SAINT LOUIS, MO 63110-1077
Phone 314-454-6000
Manager: FACILITIES MANAGER
1 CHILDREN'S PLACE
SAINT LOUIS, MO 63110-1077
Phone 314-454-6000

Additional Remarks

ROOFTOP.
OWNER DESIRES HELIPORT NOT BE CHARTED.
FOR CD CTC ST LOUIS APCH AT 314-890-1018.

Instrument Procedures

There are no published instrument procedures at 2MU1.

Some nearby airports with instrument procedures:

KCPS - St Louis Downtown Airport (7 nm SE)
KSTL - St Louis Lambert International Airport (8 nm NW)
1H0 - Creve Coeur Airport (13 nm NW)
KSUS - Spirit of St Louis Airport (18 nm W)
KALN - St Louis Regional Airport (18 nm NE)
KSET - St Charles County Smartt Airport (19 nm NW)
 
Loc | Ops | Rwys | IFR | FBO | Links
Com | Nav | Svcs | Stats | Notes

Kansas City Aviation Department
 
Area around 2MU1 (Saint Louis Children's Hospital Heliport)
 
Road maps at: MapQuest Bing Google
 
Aerial photo
No photo
 
Sectional chart

 
Airport distance calculator
Flying to Saint Louis Children's Hospital Heliport? Find the distance to fly.

From to 2MU1

Sunrise and sunset
Times for 08-Apr-2020
 Local
(UTC-5)
 Zulu
(UTC)
Morning civil twilight06:0811:08
Sunrise06:3511:35
Sunset19:3100:31
Evening civil twilight19:5800:58

Current date and time
Zulu (UTC)  09-Apr-2020 00:08:56
Local (UTC-5)  08-Apr-2020 19:08:56
 
METAR
KCPS 
7nm SE 
082353Z 18006KT 10SM CLR 28/13 A2954 RMK AO2 LTG DSNT N AND NW SLP999 T02780133 10317 20278 55024
KSTL 
8nm NW 
082351Z 30011G20KT 10SM FEW060 SCT110 SCT150 BKN250 29/06 A2955 RMK AO2 LTG DSNT W-NE SLP997 OCNL LTGCG DSNT NW-N CB DSNT SE-SW AND DSNT NW-N MOV E TCU DSNT W T02940056 10322 20289 55022 $
KSUS 
18nm W 
082354Z 30015G21KT 10SM CLR 29/06 A2955 RMK AO2 LTG DSNT N AND NE AND SW SLP000 T02940061 10322 20294 55020
KALN 
18nm NE 
082350Z 29010KT 10SM BKN150 27/11 A2956 RMK OCNL LTGCG NW
KSET 
19nm NW 
082354Z AUTO 33018G38KT 2SM +TSRA FEW041 BKN100 OVC110 22/11 A2960 RMK AO2 PK WND 31055/2334 LTG DSNT W-NE RAB35 TSB30 PRESRR SLP021 P0010 60010 T02220106 10333 20222 53001
TAF
KCPS 
7nm SE 
081727Z 0818/0918 VRB04KT P6SM SKC FM082300 29012G20KT 4SM TSRA BKN040CB FM090100 33012G22KT P6SM VCTS BKN040CB FM090200 34014G24KT P6SM BKN150 FM090700 31009KT P6SM SKC
KSTL 
8nm NW 
082055Z 0821/0924 23011G21KT P6SM SCT050 FM082300 29012G20KT 4SM TSRA BKN040CB FM090100 33012G22KT P6SM VCTS BKN040CB FM090200 34014G24KT P6SM BKN150 FM090700 31010KT P6SM SKC FM091800 29016G26KT P6SM SCT080
KSUS 
18nm W 
082030Z 0821/0918 22010G20KT P6SM SCT050 FM082300 29012G20KT 4SM TSRA BKN040CB FM090100 34014G24KT P6SM BKN150 FM090700 31009KT P6SM SKC
NOTAMs
Click for the latest NOTAMs
NOTAMs are issued by the DoD/FAA and will open in a separate window not controlled by AirNav.

 

 
 

Would you like to see your business listed on this page?

 If your business provides an interesting product or service to pilots, flight crews, aircraft, or users of the Saint Louis Children's Hospital Heliport, you should consider listing it here.  To start the listing process, click on the button below
 
Add a business
 

Other Pages about Saint Louis Children's Hospital Heliport

Update a link
 
Copyright © AirNav, LLC. All rights reserved. Privacy Policy  Contact